This is the latest recevied weather packets stored in our database for station/object KF0DL. If no packets are shown the sender has not sent any weather packets the latest 10 day(s).
| Time | Temp. | Humidity | Pressure | Rain* | Wind** | Luminosity | Snow |
|---|---|---|---|---|---|---|---|
| 1778279309 | 21.67° C | 19% | 1010.1 hPa | 0 mm | - | - | - |
| 1778279000 | 21.67° C | 19% | 1010.1 hPa | 0 mm | - | - | - |
| 1778278708 | 21.67° C | 19% | 1010.1 hPa | 0 mm | - | - | - |
| 1778278416 | 21.67° C | 18% | 1010.1 hPa | 0 mm | - | - | - |
| 1778278103 | 21.67° C | 19% | 1010.4 hPa | 0 mm | - | - | - |
| 1778277810 | 21.67° C | 19% | 1010.4 hPa | 0 mm | - | - | - |
| 1778277517 | 21.67° C | 19% | 1010.4 hPa | 0 mm | - | - | - |
| 1778277202 | 21.11° C | 18% | 1010.7 hPa | 0 mm | - | - | - |
| 1778276909 | 21.11° C | 20% | 1010.7 hPa | 0 mm | - | - | - |
| 1778276616 | 20.56° C | 20% | 1010.7 hPa | 0 mm | - | - | - |
| 1778276304 | 20.56° C | 20% | 1011.1 hPa | 0 mm | - | - | - |
| 1778276014 | 20.56° C | 20% | 1011.1 hPa | 0 mm | - | - | - |
| 1778275700 | 20° C | 21% | 1011.3 hPa | 0 mm | - | - | - |
| 1778275405 | 20° C | 21% | 1011.3 hPa | 0 mm | - | - | - |
| 1778275113 | 20° C | 21% | 1011.3 hPa | 0 mm | - | - | - |
| 1778274800 | 20° C | 21% | 1011.5 hPa | 0 mm | - | - | - |
| 1778274508 | 20° C | 23% | 1011.5 hPa | 0 mm | - | - | - |
| 1778274216 | 19.44° C | 23% | 1011.5 hPa | 0 mm | - | - | - |
| 1778273902 | 19.44° C | 23% | 1011.5 hPa | 0 mm | - | - | - |
| 1778273610 | 20° C | 22% | 1011.5 hPa | 0 mm | - | - | - |
| 1778273303 | 20° C | 22% | 1011.5 hPa | 0 mm | - | - | - |
| 1778273010 | 20° C | 22% | 1011.5 hPa | 0 mm | - | - | - |
| 1778272717 | 20.56° C | 21% | 1011.5 hPa | 0 mm | - | - | - |
| 1778272405 | 21.11° C | 21% | 1011.5 hPa | 0 mm | - | - | - |
| 1778272111 | 21.11° C | 21% | 1011.5 hPa | 0 mm | - | - | - |
* Rain latest hour (hover to see other rain measurements)
** Current wind speed in m/s (hover to see current wind gust speed)